Location: Jackson Park
(37.2862°N, 79.9123°W)
Time: 17:46:28
(UTC+00:00)

Vanguard 1 Rocket - Pass Details

Date: 18 May 2026
Orbit: 656 x 4211 km, 34.3° (Epoch: 9 June)

Event Time Altitude Azimuth Distance (km) Brightness Sun altitude
Rises 23:09:53 0° 277° (W) 4,894 13.1 13.0°
Reaches altitude 10° 23:12:27 10° 275° (W) 4,236 13.2 12.5°
Maximum altitude 23:24:54 71° 194° (SSW) 2,986 10.2 10.1°
Drops below altitude 10° 23:48:03 10° 117° (ESE) 7,251 11.4 5.8°
Sets 23:54:13 0° 115° (ESE) 8,425 11.6 4.6°
